Regional Weather Roundup
Issued by NWS Sterling, VA

Home | Current Version | Previous Version | Text Only | Print | Product List | Glossary Off
Versions: 1 2 3 4 5 6 7 8 9 10 11 12 13 14 15 16 17 18 19 20 21 22 23 24 25 26 27 28 29 30 31 32 33 34 35 36 37 38 39 40 41 42 43 44 45 46 47 48 49 50

000
ASUS41 KLWX 031410
RWRLWX

REGIONAL WEATHER ROUNDUP
NATIONAL WEATHER SERVICE BALTIMORE MD/WASHINGTON DC
1000 AM EDT MON AUG 03 2015

Note: "FAIR" indicates few or no clouds below 12,000 feet
with no significant weather and/or obstructions to visibility.
 TC=TEMPERATURE CELSIUS

 * =Non NWS site. Station does not report precipitation (e.g. rain,
    snow, etc.), thunder, or fog.

DCZ001-MDZ009-015-VAZ040>042-051-053>054-031500-
WASHINGTON METRO

CITY           SKY/WX    TMP DP  RH WIND       PRES   REMARKS
WASHINGTON NAT MOSUNNY   83  65  54 S9        29.89F
DULLES         MOSUNNY   78  64  61 CALM      29.88F
ANDREWS AFB    SUNNY     82  62  51 SW14      29.89S
QUANTICO       MOSUNNY   83  63  51 S6        29.86S
COLLEGE PARK*  SUNNY     81  59  47 SW5       29.88F
LEESBURG*      SUNNY     81  66  61 SW8       29.90S
MANASSAS*      SUNNY     79  64  61 SW6       29.89S
GAITHERSBURG*  SUNNY     79  63  57 W5        29.92F

$$

MDZ006>007-011-014-031500-
BALTIMORE METRO

CITY           SKY/WX    TMP DP  RH WIND       PRES   REMARKS
BWI AIRPORT    MOSUNNY   81  62  52 SW10      29.87F
MD SCIENCE CTR   N/A     82  61  48 MISG      29.88S
MARTIN STATE   MOSUNNY   81  66  61 S10       29.89S
ANNAPOLIS      SUNNY     80  61  52 SW9       29.88S
FORT MEADE*    SUNNY     77  64  65 SW8       29.90S

$$

MDZ012-015-019>023-031500-
MARYLAND EASTERN SHORE

CITY           SKY/WX    TMP DP  RH WIND       PRES   REMARKS
OCEAN CITY     PTSUNNY   83  73  72 S8        29.91S
SALISBURY      SUNNY     81  72  74 S8        29.91R
BAY BRIDGE AP*   N/A     81  61  50 SW7       29.89S
CAMBRIDGE*     SUNNY     82  66  57 SW7       29.89S
EASTON*        MOSUNNY   84  66  54 SW8       29.93R

$$

MDZ017>025-031500-
SOUTHERN MARYLAND

CITY           SKY/WX    TMP DP  RH WIND       PRES   REMARKS
PATUXENT RIVER MOSUNNY   82  68  62 SW8       29.90R
ST INIGOES     MOSUNNY   81  72  74 SW9       29.90R
LEONARDTOWN*   MOSUNNY   81  64  57 SW6       29.92R

$$

MDZ003>005-031500-
NORTH CENTRAL MARYLAND

CITY           SKY/WX    TMP DP  RH WIND       PRES   REMARKS
FREDERICK*     SUNNY     79  66  65 SW5       29.91S
HAGERSTOWN APT SUNNY     77  60  55 S8        29.88S
WESTMINSTER*   SUNNY     75  63  64 SW7       29.90S

$$

MDZ501>502-031500-
WESTERN MARYLAND

CITY           SKY/WX    TMP DP  RH WIND       PRES   REMARKS
OAKLAND*       SUNNY     68 N/A N/A SW8       29.95F
CUMBERLAND*    SUNNY     77  63  61 S6        29.91F

$$

VAZ025>031-031500-
SHENANDOAH VALLEY

CITY           SKY/WX    TMP DP  RH WIND       PRES   REMARKS
WINCHESTER*    SUNNY     81  59  47 SW7       29.90S
FRONT ROYAL*   FAIR      77  61  57 SW7       29.90S
LURAY*         FAIR      81  63  54 SW7       29.92S
NEW MARKET*    FAIR      76  62  61 W5        29.91F
STAUNTON*      SUNNY     80  61  53 SW7       29.96S
WAYNESBORO*    FAIR      75  61  60 W5        29.96F

$$

WVZ021-048>050-054>055-031500-
EASTERN WEST VIRGINIA PANHANDLE

CITY           SKY/WX    TMP DP  RH WIND       PRES   REMARKS
MARTINSBURG    SUNNY     78  60  53 VRB6      29.89S
PETERSBURG*    MOSUNNY  N/A N/A N/A CALM      29.91F

$$

VAZ036>039-050-031500-
CENTRAL FOOTHILLS

CITY           SKY/WX    TMP DP  RH WIND       PRES   REMARKS
CHARLOTTESVILL SUNNY     79  63  57 S6        29.92R
CULPEPER*      SUNNY     77  65  65 W3        29.91S
ORANGE*        SUNNY     81  63  54 CALM      29.92F
GORDONSVILLE*  FAIR      75  66  73 S3        29.91F
WARRENTON*     FAIR      81  68  66 CALM      29.89F

$$

VAZ055>057-031500-
NORTH AND CENTRAL PIEDMONT

CITY           SKY/WX    TMP DP  RH WIND       PRES   REMARKS
FREDERICKSBRG* MOSUNNY   81  64  57 SW7       29.89F
STAFFORD*      MOSUNNY   79  62  54 SW6       29.94F

$$

NCZ024-NYZ072-PAZ021-071-VAZ022-071-031500-
OTHER REGIONAL OBSERVATIONS

CITY           SKY/WX    TMP DP  RH WIND       PRES   REMARKS
NEW YORK CITY  SUNNY     80  61  52 VRB3      29.87S
PHILADELPHIA   MOSUNNY   83  63  50 SW15      29.87S
PITTSBURGH     CLOUDY    71  58  63 SW7       29.83R
ROANOKE        MOSUNNY   76  60  57 W6        29.99S
RICHMOND       MOSUNNY   83  66  56 SW7       29.91S
RALEIGH        MOSUNNY   81  73  76 SW6       29.95S

$$

ANZ530>537-031500-
MARINE OBSERVATIONS

STATION/POSITION TIME  TEMP    WIND        PRES
                       AIR SEA DIR/SP/G
                 (UTC) (F)     (DEG/KT/KT) (MB)
THOMAS PT LIGHT  1400   78     240/ 11     1012.4
BALT KEY BRIDGE  1300   76     230/ 10/ 12 1011.5R
COVE POINT       1300   80     260/  9/ 12 1012.8R
LEWISETTA        1300   79 83  210/  6/  8 1012.2R
SOLOMONS ISLAND  1300      82                N/A
PINEY POINT      1300          240/  6/  8   N/A

$$



USA.gov is the U.S. government's official web portal to all federal, state and local government web resources and services.